Eugene, OR

6:05 AM PST on December 08, 2019 (GMT -0800)
Mahlon Sweet

Weather History for KEUG - November, 2019

Change the Weather History Date:

Saturday, November 16, 2019

  Actual Average Record
Temperature  
Mean Temperature 54 °F 45 °F  
Max Temperature 59 °F 52 °F 71 °F (1976)
Min Temperature 48 °F 38 °F 21 °F (1955)
Degree Days  
Heating Degree Days 11 20  
Month to date heating degree days 292 296  
Since 1 July heating degree days 888 866  
Cooling Degree Days 0 0  
Month to date cooling degree days 0 0  
Year to date cooling degree days 353 239  
Growing Degree Days 2 (Base 50)    
Moisture  
Dew Point 47 °F    
Average Humidity 84    
Maximum Humidity 100    
Minimum Humidity 67    
Precipitation  
Precipitation 0.00 in 0.27 in 1.65 in (1930)
Month to date precipitation 0.33 3.70  
Year to date precipitation 30.07 34.25  
Sea Level Pressure  
Sea Level Pressure 30.31 in    
Wind  
Wind Speed 3 mph (South)    
Max Wind Speed 9 mph    
Max Gust Speed 12 mph    
Visibility 6 miles    
Events Fog    
T = Trace of Precipitation, MM = Missing Value Source: NWS Daily Summary

Daily Weather History Graph

Daily Weather History Graph

Search for Another Location

Airport or City:

Astronomy

Nov. 16, 2019 Rise Set
Actual Time 7:09 AM PST 4:45 PM PST
Civil Twilight 6:38 AM PST 5:16 PM PST
Nautical Twilight 6:02 AM PST 5:51 PM PST
Astronomical Twilight 5:28 AM PST 6:26 PM PST
Moon 8:20 PM PST (11/16) 11:12 AM PST (11/16)
Length of Visible Light 10h 38m
Length of Day
9h 36m
Waning Gibbous, 81% of the Moon is Illuminated
Nov 16
Waning Gibbous
Nov 19
Last Quarter
Nov 26
New
Dec 3
First Quarter
Dec 11
Full

Hourly Weather History & Observations

Time (PST) Temp. Windchill Dew Point Humidity Pressure Visibility Wind Dir Wind Speed Gust Speed Precip Events Conditions
12:02 AM 50.0 °F - 48.0 °F 93% 30.32 in 10.0 mi SSW 4.6 mph - N/A   Overcast
12:54 AM 51.1 °F - 48.0 °F 89% 30.32 in 10.0 mi SSW 4.6 mph - N/A   Overcast
1:54 AM 51.1 °F - 48.9 °F 92% 30.33 in 10.0 mi WSW 3.5 mph - N/A   Overcast
2:54 AM 51.1 °F - 48.9 °F 92% 30.33 in 7.0 mi WSW 3.5 mph - N/A   Overcast
3:35 AM 48.9 °F - 46.9 °F 93% 30.33 in 2.0 mi NNE 4.6 mph - N/A   Overcast
3:54 AM 48.9 °F - 46.9 °F 93% 30.34 in 1.0 mi North 5.8 mph - N/A   Overcast
4:13 AM 48.0 °F - 46.9 °F 96% 30.34 in 0.8 mi North 3.5 mph - N/A   Mist
4:52 AM 48.2 °F - 46.4 °F 93% 30.34 in 2.0 mi NE 3.5 mph - N/A   Overcast
4:54 AM 48.0 °F - 46.9 °F 96% 30.34 in 3.0 mi NNE 4.6 mph - N/A   Overcast
5:41 AM 48.9 °F - 46.9 °F 93% 30.33 in 2.5 mi Calm Calm - N/A   Mist
5:54 AM 48.0 °F - 46.9 °F 96% 30.34 in 2.0 mi Calm Calm - N/A   Mist
6:01 AM 48.0 °F - 46.9 °F 96% 30.34 in 0.5 mi Calm Calm - N/A   Mist
6:54 AM 48.0 °F - 46.9 °F 96% 30.33 in 0.5 mi Calm Calm - N/A   Mist
7:21 AM 48.0 °F - 46.9 °F 96% 30.33 in 2.0 mi Variable 3.5 mph - N/A   Overcast
7:31 AM 48.0 °F - 46.0 °F 93% 30.33 in 3.0 mi South 4.6 mph - N/A   Overcast
7:54 AM 50.0 °F - 46.9 °F 89% 30.34 in 5.0 mi South 3.5 mph - N/A   Overcast
8:54 AM 50.0 °F - 46.9 °F 89% 30.34 in 6.0 mi SSE 6.9 mph - N/A   Overcast
9:36 AM 51.1 °F - 46.9 °F 86% 30.34 in 8.0 mi Calm Calm - N/A   Mostly Cloudy
9:49 AM 51.8 °F - 46.4 °F 82% 30.33 in 9.0 mi SSE 5.8 mph - N/A   Mostly Cloudy
9:54 AM 52.0 °F - 46.9 °F 83% 30.34 in 10.0 mi SSE 4.6 mph - N/A   Mostly Cloudy
10:54 AM 54.0 °F - 46.9 °F 77% 30.33 in 10.0 mi SE 8.1 mph - N/A   Mostly Cloudy
11:54 AM 55.9 °F - 46.9 °F 72% 30.31 in 10.0 mi Calm Calm - N/A   Mostly Cloudy
12:54 PM 57.9 °F - 48.0 °F 70% 30.29 in 10.0 mi Calm Calm - N/A   Mostly Cloudy
1:54 PM 57.9 °F - 48.9 °F 72% 30.28 in 10.0 mi Calm Calm - N/A   Mostly Cloudy
2:54 PM 57.9 °F - 48.9 °F 72% 30.26 in 10.0 mi Calm Calm - N/A   Mostly Cloudy
3:54 PM 59.0 °F - 48.9 °F 69% 30.27 in 10.0 mi West 3.5 mph - N/A   Mostly Cloudy
4:54 PM 53.1 °F - 48.0 °F 83% 30.27 in 10.0 mi NNE 3.5 mph - N/A   Mostly Cloudy
5:54 PM 53.1 °F - 48.9 °F 86% 30.29 in 10.0 mi Calm Calm - N/A   Mostly Cloudy
6:54 PM 52.0 °F - 48.9 °F 89% 30.28 in 10.0 mi Calm Calm - N/A   Mostly Cloudy
7:54 PM 52.0 °F - 48.9 °F 89% 30.29 in 10.0 mi NNW 3.5 mph - N/A   Mostly Cloudy
8:54 PM 51.1 °F - 48.0 °F 89% 30.28 in 10.0 mi Calm Calm - N/A   Mostly Cloudy
9:42 PM 48.2 °F - 44.6 °F 87% 30.26 in 6.0 mi SW 3.5 mph - N/A Fog Scattered Clouds
9:54 PM 48.2 °F - 46.4 °F 93% 30.26 in 6.0 mi WSW 4.6 mph - N/A Fog Scattered Clouds
10:54 PM 44.6 °F - 44.6 °F 100% 30.26 in 4.0 mi Calm Calm - N/A Fog Scattered Clouds
11:25 PM 44.6 °F - 42.8 °F 93% 30.27 in 2.0 mi Calm Calm - N/A Fog Mostly Cloudy
11:39 PM 44.1 °F 40.8 °F 43.0 °F 96% 30.26 in 0.2 mi SSE 5.8 mph - N/A Fog Fog
11:54 PM 45.0 °F 41.8 °F 43.0 °F 93% 30.26 in 0.5 mi SE 5.8 mph - N/A Fog Fog
11:59 PM 46.0 °F 43.9 °F 45.0 °F 96% 30.26 in 1.2 mi South 4.6 mph - N/A   Scattered Clouds